GW0850 Weather Reports


time (UTC)temp
C
wind
direction
speed
KPH
gust
KPH
rain 1hr
cm
rain 24hr
cm
rain mn
cm
humidity
%
barometer
mb
20260906172540 27 73 4.8 4.8 0.00 0.00 0.00 74 1017.6
20260906171536 28 54 4.8 8.0 0.00 0.00 0.00 73 1017.8
20260906170533 27 41 0.0 8.0 0.00 0.00 0.00 74 1017.5
20260906165529 27 41 3.2 8.0 0.00 0.00 0.00 74 1017.6
20260906164528 28 49 0.0 4.8 0.00 0.00 0.00 73 1017.4
20260906163525 28 91 3.2 3.2 0.00 0.00 0.00 73 1017.2
20260906162523 28 39 3.2 6.4 0.00 0.00 0.00 71 1017.4
20260906161520 28 34 1.6 8.0 0.00 0.00 0.00 71 1017.5
20260906160517 28 61 0.0 4.8 0.00 0.00 0.00 72 1017.5
20260906155514 27 25 3.2 4.8 0.00 0.00 0.00 74 1018.0
20260906154511 26 60 3.2 8.0 0.00 0.00 0.00 77 1018.0
20260906153508 26 35 1.6 6.4 0.00 0.00 0.00 77 1017.8
20260906152504 26 40 0.0 4.8 0.00 0.00 0.00 77 1017.8
20260906151459 26 28 0.0 4.8 0.00 0.00 0.00 78 1018.1
20260906150456 25 40 0.0 3.2 0.00 0.00 0.00 79 1018.0
20260906145455 25 55 1.6 4.8 0.00 0.00 0.00 80 1017.7
20260906144450 25 28 0.0 4.8 0.00 0.00 0.00 80 1018.2
20260906143446 25 46 0.0 8.0 0.00 0.00 0.00 79 1017.7
20260906142442 25 68 3.2 4.8 0.00 0.00 0.00 79 1018.1
20260906141443 25 28 3.2 8.0 0.00 0.00 0.00 80 1018.2
20260906140438 25 60 3.2 4.8 0.00 0.00 0.00 81 1018.1
20260906135435 24 91 3.2 4.8 0.00 0.00 0.00 82 1018.0
20260906134432 23 40 0.0 4.8 0.00 0.00 0.00 84 1017.8
20260906133428 23 39 0.0 3.2 0.00 0.00 0.00 85 1018.1
20260906132425 23 77 0.0 3.2 0.00 0.00 0.00 85 1018.1
20260906131421 23 74 1.6 3.2 0.00 0.00 0.00 86 1018.1
20260906130416 22 52 3.2 4.8 0.00 0.00 0.00 86 1017.8
20260906125414 22 35 0.0 1.6 0.00 0.00 0.00 87 1018.1
20260906124410 22 60 0.0 3.2 0.00 0.00 0.00 87 1018.0
20260906123409 22 12 0.0 1.6 0.00 0.00 0.00 88 1017.6
20260906122410 22 35 0.0 3.2 0.00 0.00 0.00 88 1017.5
20260906121408 22 35 0.0 3.2 0.00 0.00 0.00 88 1017.3
20260906120406 21 43 1.6 3.2 0.00 0.00 0.00 88 1017.4
20260906115403 21 20 0.0 3.2 0.00 0.00 0.00 88 1017.2
20260906114403 21 48 3.2 3.2 0.00 0.00 0.00 88 1016.9
20260906113403 21 74 1.6 4.8 0.00 0.00 0.00 89 1016.7
20260906112401 21 38 0.0 4.8 0.00 0.00 0.00 89 1016.7
20260906111401 21 52 0.0 4.8 0.00 0.00 0.00 89 1016.7
20260906110357 21 43 0.0 3.2 0.00 0.00 0.00 90 1016.9
20260906105352 21 43 1.6 1.6 0.00 0.00 0.00 90 1016.9
20260906104352 21 68 3.2 4.8 0.00 0.00 0.00 90 1016.9
20260906103349 21 27 0.0 3.2 0.00 0.00 0.00 90 1017.0
20260906102344 21 40 0.0 1.6 0.00 0.00 0.00 90 1017.2
20260906101341 21 56 0.0 4.8 0.00 0.00 0.00 90 1017.0
20260906100335 21 35 0.0 3.2 0.00 0.00 0.00 90 1016.8
20260906095332 22 73 0.0 6.4 0.00 0.00 0.00 90 1016.9
20260906094332 22 37 0.0 4.8 0.00 0.00 0.00 90 1016.9
20260906093330 22 55 1.6 4.8 0.00 0.00 0.00 89 1016.6
20260906092325 22 12 0.0 4.8 0.00 0.00 0.00 89 1016.7
20260906091323 22 56 3.2 3.2 0.00 0.00 0.00 88 1016.5
20260906090318 22 80 0.0 4.8 0.00 0.00 0.00 87 1016.6
20260906085317 23 35 0.0 4.8 0.00 0.00 0.00 85 1016.2
20260906084312 23 46 0.0 1.6 0.00 0.00 0.00 85 1016.1
20260906083308 23 27 0.0 4.8 0.00 0.00 0.00 85 1016.3
20260906082306 23 12 0.0 0.0 0.00 0.00 0.00 85 1016.3
20260906081301 23 28 0.0 4.8 0.00 0.00 0.00 84 1016.3
20260906080259 23 49 0.0 4.8 0.00 0.00 0.00 84 1016.3
20260906075258 23 104 0.0 8.0 0.00 0.00 0.00 84 1016.3
20260906074253 23 34 0.0 4.8 0.00 0.00 0.00 84 1016.2
20260906073253 23 90 8.0 8.0 0.00 0.00 0.00 84 1016.1
20260906072250 23 51 6.4 6.4 0.00 0.00 0.00 84 1016.4
20260906071246 24 25 1.6 3.2 0.00 0.00 0.00 85 1016.2
20260906070244 24 36 6.4 6.4 0.00 0.00 0.00 85 1016.4
20260906065239 24 68 3.2 4.8 0.00 0.00 0.00 85 1016.3
20260906064236 25 37 3.2 4.8 0.00 0.00 0.00 85 1016.4
20260906063232 25 36 3.2 4.8 0.00 0.00 0.00 86 1016.4
20260906062232 25 65 3.2 6.4 0.00 0.00 0.00 86 1016.5
20260906061231 25 35 1.6 3.2 0.00 0.00 0.00 86 1016.2
20260906060229 25 20 0.0 1.6 0.00 0.00 0.00 86 1016.2
20260906055225 25 20 0.0 4.8 0.00 0.00 0.00 87 1016.2
20260906054221 25 89 0.0 1.6 0.00 0.00 0.00 86 1016.2
20260906053219 25 41 3.2 3.2 0.00 0.00 0.00 86 1016.2
20260906052217 25 28 0.0 3.2 0.00 0.00 0.00 86 1016.3
20260906051213 25 31 3.2 6.4 0.00 0.00 0.00 85 1016.2
20260906050209 26 43 1.6 4.8 0.00 0.00 0.00 85 1016.5
20260906045208 26 26 0.0 3.2 0.00 0.00 0.00 85 1016.3
20260906044206 26 28 3.2 3.2 0.00 0.00 0.00 84 1016.2
20260906043203 26 28 0.0 4.8 0.00 0.00 0.00 83 1016.2
20260906042202 26 20 0.0 3.2 0.00 0.00 0.00 83 1016.0
20260906041159 26 20 0.0 3.2 0.00 0.00 0.00 82 1015.8
20260906040155 26 40 1.6 3.2 0.00 0.00 0.00 81 1015.9
20260906035152 27 43 0.0 1.6 0.00 0.00 0.00 81 1015.8
20260906034147 27 43 0.0 3.2 0.00 0.00 0.00 80 1015.6
20260906033143 27 49 0.0 3.2 0.00 0.00 0.00 80 1015.9
20260906032139 27 43 0.0 1.6 0.00 0.00 0.00 80 1015.7
20260906031136 27 40 0.0 0.0 0.00 0.00 0.00 80 1015.8
20260906030131 27 46 0.0 1.6 0.00 0.00 0.00 80 1015.7
20260906025129 27 43 1.6 1.6 0.00 0.00 0.00 79 1015.5
20260906024124 27 43 0.0 1.6 0.00 0.00 0.00 78 1015.6
20260906023120 27 88 0.0 0.0 0.00 0.00 0.00 77 1015.3
20260906022117 27 12 0.0 0.0 0.00 0.00 0.00 77 1015.2
20260906021117 27 110 0.0 0.0 0.00 0.00 0.00 77 1014.9
20260906020118 27 110 0.0 0.0 0.00 0.00 0.00 77 1014.6
20260906015116 28 110 0.0 0.0 0.00 0.00 0.00 76 1014.7
20260906014114 28 35 0.0 3.2 0.00 0.00 0.00 75 1014.6
20260906013109 28 43 0.0 0.0 0.00 0.00 0.00 75 1014.5
20260906012104 28 43 0.0 0.0 0.00 0.00 0.00 74 1014.5
20260906011100 28 94 0.0 0.0 0.00 0.00 0.00 74 1014.4
20260906010058 28 101 0.0 1.6 0.00 0.00 0.00 74 1014.5
20260906005056 29 36 0.0 0.0 0.00 0.00 0.00 73 1014.4
20260906004057 30 35 0.0 0.0 0.00 0.00 0.00 72 1014.4
20260906003054 30 95 0.0 1.6 0.00 0.00 0.00 71 1014.0
20260906002049 30 20 0.0 4.8 0.00 0.00 0.00 69 1013.9
20260906001044 30 27 0.0 3.2 0.00 0.00 0.00 68 1014.1
20260906000041 31 49 0.0 1.6 0.00 0.00 0.00 69 1014.1
20260905235042 31 49 0.0 4.8 0.00 0.00 0.00 68 1013.8
20260905234038 31 35 0.0 3.2 0.00 0.00 0.00 67 1013.8
20260905233038 31 28 0.0 4.8 0.00 0.00 0.00 66 1014.0
20260905232035 31 46 4.8 6.4 0.00 0.00 0.00 65 1014.1
20260905231032 31 25 3.2 6.4 0.00 0.00 0.00 65 1014.0
20260905230030 31 25 6.4 6.4 0.00 0.00 0.00 65 1014.0
20260905225026 32 43 0.0 6.4 0.00 0.00 0.00 64 1013.9
20260905224026 32 49 1.6 3.2 0.00 0.00 0.00 64 1013.8
20260905223025 32 101 1.6 4.8 0.00 0.00 0.00 64 1014.1
20260905222020 32 61 3.2 6.4 0.00 0.00 0.00 63 1013.8
20260905221018 32 39 3.2 6.4 0.00 0.00 0.00 61 1014.0
20260905220015 32 20 3.2 6.4 0.00 0.00 0.00 62 1013.9
20260905215011 32 27 1.6 4.8 0.00 0.00 0.00 62 1013.8
20260905214007 32 80 3.2 4.8 0.00 0.00 0.00 64 1014.2
20260905213003 32 6 1.6 4.8 0.00 0.00 0.00 64 1014.1
20260905212003 32 126 1.6 3.2 0.00 0.00 0.00 63 1014.4
20260905211001 32 55 1.6 4.8 0.00 0.00 0.00 62 1014.2
20260905205955 32 121 0.0 6.4 0.00 0.00 0.00 62 1014.0
20260905204955 32 57 3.2 4.8 0.00 0.00 0.00 63 1013.9
20260905203956 32 27 1.6 8.0 0.00 0.00 0.00 61 1013.8
20260905202953 32 299 1.6 4.8 0.00 0.00 0.00 63 1013.8
20260905201949 32 37 4.8 6.4 0.00 0.00 0.00 63 1013.9
20260905200949 32 34 0.0 4.8 0.00 0.00 0.00 65 1014.2
20260905195944 32 31 4.8 6.4 0.00 0.00 0.00 64 1014.5
20260905194941 32 34 1.6 4.8 0.00 0.00 0.00 68 1014.5
20260905193940 32 67 11.3 11.3 0.00 0.00 0.00 67 1014.9
20260905192935 31 186 1.6 6.4 0.00 0.00 0.00 69 1014.7
20260905191932 31 42 6.4 11.3 0.00 0.00 0.00 69 1015.1
20260905190931 31 241 3.2 6.4 0.00 0.00 0.00 69 1015.3
20260905185927 31 92 4.8 8.0 0.00 0.00 0.00 69 1015.6
20260905184927 31 110 4.8 4.8 0.00 0.00 0.00 69 1015.9
20260905183927 31 123 1.6 8.0 0.00 0.00 0.00 70 1015.7
20260905182923 30 15 3.2 6.4 0.00 0.00 0.00 70 1015.8
20260905181923 30 252 3.2 3.2 0.00 0.00 0.00 71 1016.0
20260905180923 30 68 3.2 4.8 0.00 0.00 0.00 72 1015.8
20260905175918 30 69 6.4 12.9 0.00 0.00 0.00 70 1016.1
20260905174918 30 67 4.8 6.4 0.00 0.00 0.00 72 1016.1
20260905173915 30 16 0.0 6.4 0.00 0.00 0.00 72 1016.3
20260905172912 30 20 1.6 11.3 0.00 0.00 0.00 72 1016.1